Location: N�rnberg
(49.4489°N, 11.0797°E)
Time: 18:57:54
(UTC+01:00)

OTV 5 (USA 277) - Visible Passes

Search period start: 18 November 2017 00:00
Search period end: 28 November 2017 00:00
Orbit: 404 x 417 km, 43.0° (Epoch: 07 September)

Date Brightness Start Highest point End Pass type
(mag) Time Alt. Az. Time Alt. Az. Time Alt. Az.
18 Nov ? 04:53:27 15° SSE 04:53:27 15° SSE 04:54:22 10° SE visible
18 Nov ? 06:27:29 10° SW 06:28:15 11° SSW 06:29:01 10° SSW visible
19 Nov ? 05:37:38 14° SSW 05:37:38 14° SSW 05:39:10 10° S visible
